Location: Davidschlag
(48.4333°N, 14.2833°E)
Time: 07:34:01
(UTC+00:00)

STARLINK-1065 - Pass Details

Date: 27 February 2020
Orbit: 547 x 551 km, 53.0° (Epoch: 30 March)

Event Time Altitude Azimuth Distance (km) Brightness Sun altitude
Rises 18:00:56 0° 234° (SW) 2,705 8.0 -13.7°
Reaches altitude 10° 18:03:09 10° 231° (SW) 1,815 7.0 -14.1°
Maximum altitude 18:07:15 68° 149° (SSE) 594 3.6 -14.8°
Enters shadow 18:09:29 26° 72° (ENE) 1,111 4.6 -15.1°
